Temperature
13 13 12 13 13 13 13 13 12 12 12 12 12 12 12 12 12 12 12 13 13 13 13 13 13 13 13 13 13 13 13 13 13 13 13 13 13 13 13 13 12 12 12
12 12 12 12 12 12 12 12 12 12 12 12 12 12 12 12 12 12 12 12 12 12 12 12 12 12 12 12 12 12 12 12 12 12 12 12 12 12 12 12 12 12 12
12 12 12 12 12 12 12 12 12 12 12 12 12 12 11 11 11 11 11 12 12 12 12 12 12 12 12 12 12 12 12 12 12 12 12 12 12 12 12 12 12 12 12
12 12 12 12 12 12 12 12 12 12 11 11 11 11 11 11 11 11 11 11 11 11 11 11 11 11 11 11 11 11 11 11 11 11 11 11 11 12 12 11 11 11 11
12 12 12 11 11 11 11 11 11 11 11 11 11 11 11 11 11 11 11 11 11 11 11 11 11 11 11 11 11 11 11 11 11 11 11 11 11 11 11 11 11 11 11
11 11 11 11 11 11 11 11 11 11 11 11 11 11 10 10 10 10 10 10 10 10 10 10 10 10 10 10 10 10 10 10 10 10 11 10 11 11 11 11 11 11 11
11 11 11 11 11 11 11 11 10 10 10 10 10 10 10 10 10 10 10 10 10 10 10 10 10 10 10 10 10 10 10 10 10 10 10 10 10 10 10 10 10 10 10
11 11 10 10 10 10 10 10 10 10 10 10 9 9 9 9 9 9 9 9 9 9 9 9 9 9 9 9 9 9 9 10 10 10 10 10 10 10 10 10 10 10 10
10 10 10 10 10 10 10 10 10 10 9 9 9 9 8 9 9 9 9 9 9 9 9 9 9 9 9 9 9 9 9 9 9 9 9 9 9 9 9 9 9 9 9
10 10 10 10 10 9 9 9 9 9 9 9 9 9 8 8 8 8 8 8 8 8 8 8 8 8 8 8 9 9 9 9 9 9 9 9 9 9 8 8 9 9 9
10 9 9 9 9 9 9 9 9 9 9 8 8 8 8 8 7 7 7 7 8 8 8 8 8 8 8 8 8 8 8 8 8 8 8 8 8 8 8 8 8 8 8
9 9 9 9 9 9 9 9 9 8 8 8 8 8 7 7 7 7 7 7 7 7 7 8 8 8 8 8 8 8 8 8 8 8 8 7 7 7 7 7 8 8 8
8 9 9 9 8 8 8 8 8 8 8 8 7 7 7 7 7 7 6 6 6 6 7 7 7 7 7 7 7 7 7 7 7 7 7 7 7 7 7 7 7 7 7
8 8 8 8 8 8 8 8 8 8 7 7 7 7 7 7 7 6 6 6 6 6 6 6 7 7 7 7 7 7 7 7 7 7 7 6 6 6 6 6 6 6 6
8 7 7 7 8 7 7 7 7 7 7 7 7 7 7 7 6 6 6 6 5 5 5 6 6 6 6 6 6 6 6 6 6 6 6 6 6 6 6 6 6 6 6
7 7 7 7 7 7 7 7 7 7 7 6 6 6 6 6 6 6 6 6 5 5 5 5 5 5 6 6 6 5 5 6 6 6 6 6 6 6 6 5 5 5 5
7 7 7 6 6 6 6 6 6 6 6 6 6 6 6 6 6 6 6 6 5 5 4 5 5 5 5 5 5 5 5 5 5 5 5 5 5 5 5 5 5 5 5
7 6 6 6 6 6 6 6 6 6 6 6 6 6 6 6 6 5 5 5 5 4 4 4 4 4 5 4 4 4 4 4 4 5 5 4 4 4 4 4 4 4 4
6 6 6 5 5 5 5 5 5 5 5 5 5 5 5 5 5 5 5 4 4 4 4 3 4 4 4 4 4 4 4 4 4 4 4 4 4 4 4 4 4 4 4
5 5 5 5 5 5 5 5 5 5 5 5 5 5 5 4 4 4 4 4 4 3 3 3 3 3 3 3 3 3 3 3 3 3 3 3 3 3 3 3 3 3 3
5 5 5 5 5 4 4 4 4 4 4 4 4 4 4 4 4 4 3 3 3 3 3 2 2 2 2 2 2 2 2 3 3 3 3 3 3 3 2 2 2 2 2
5 4 4 4 4 4 4 4 4 4 4 4 4 4 4 3 3 3 3 3 3 2 2 2 2 2 2 2 2 2 2 2 2 2 2 2 2 2 2 2 2 2 2
4 4 4 4 4 4 4 4 3 3 3 3 3 3 3 3 3 2 2 2 2 2 2 2 1 1 1 1 1 1 1 1 1 1 1 2 2 2 2 2 2 1 1
4 4 4 4 4 4 3 3 3 3 3 3 3 3 2 2 2 2 2 2 2 2 1 1 1 1 1 1 1 1 1 1 1 1 1 1 1 1 2 2 1 1 1
4 4 3 3 3 3 3 3 3 2 2 2 2 2 2 2 2 1 1 1 1 1 1 1 1 1 1 1 0 0 0 -0 0 0 0 -0 0 1 1 1 1 1 1
3 3 3 3 3 3 3 3 2 2 2 2 2 2 2 1 1 1 1 1 1 1 1 0 0 0 0 0 0 -0 -0 -1 -1 -1 -0 -1 -0 -1 -0 0 0 0 0
Wind_Speed
1 1 1 1 1 1 1 2 2 2 3 3 3 4 4 5 5 5 4 3 5 6 7 8 9 9 10 10 9 10 10 10 10 10 11 11 11 10 10 10 10 10 10
1 1 1 1 1 1 2 2 3 3 3 3 4 4 5 5 5 5 5 4 4 5 6 7 7 8 9 10 9 9 9 9 9 9 10 10 10 10 11 11 11 11 11
1 1 1 1 1 2 2 2 2 3 3 3 4 4 4 4 4 4 4 4 4 4 5 5 6 6 6 7 7 8 8 8 8 8 9 10 10 11 11 11 11 11 12
0 1 1 2 1 2 2 1 1 2 2 3 3 3 3 3 3 4 3 3 4 4 4 3 4 4 4 4 5 6 6 7 6 7 8 9 10 11 11 11 12 11 12
0 1 1 1 2 1 1 2 1 2 3 3 3 3 3 2 2 3 3 3 3 3 3 2 2 3 4 4 5 6 7 7 7 8 9 9 10 10 11 11 12 12 12
1 1 1 1 1 1 2 2 2 2 2 3 3 3 2 2 2 2 3 2 2 3 3 3 3 3 4 5 6 6 7 7 8 8 9 9 10 10 10 11 12 12 13
0 1 1 1 1 1 2 2 2 2 2 2 3 2 2 2 2 2 2 2 2 2 3 3 3 3 3 4 5 7 8 8 8 9 9 10 10 10 10 11 11 11 12
1 1 1 1 1 1 2 2 2 2 2 1 2 2 2 3 2 2 2 2 2 2 2 3 3 3 4 4 4 6 7 8 9 9 9 10 11 10 10 11 12 12 12
1 1 1 2 2 2 2 2 2 3 2 2 2 2 3 3 2 2 3 3 3 3 3 3 3 4 4 4 4 5 7 8 9 9 9 9 9 9 9 9 9 10 11
0 0 1 2 2 2 2 3 2 3 3 3 3 4 4 3 3 3 3 3 4 4 4 3 3 4 4 4 4 5 6 8 8 8 8 9 9 9 9 9 7 7 7
1 1 1 1 2 2 3 3 3 3 3 4 3 3 4 4 5 4 5 4 4 4 4 4 3 3 3 4 4 5 6 7 8 8 8 8 8 8 8 7 6 6 6
1 1 2 2 2 2 3 3 3 4 4 4 4 4 4 3 4 5 6 6 5 4 4 4 4 3 3 4 4 5 5 6 7 8 8 8 8 7 7 7 6 6 6
2 2 2 3 2 2 3 3 3 4 4 4 4 4 4 4 4 5 6 6 6 5 4 4 4 4 3 4 4 5 5 6 7 7 8 7 7 7 7 7 6 6 7
3 3 3 3 3 3 3 4 3 4 4 4 5 5 4 4 4 4 5 5 6 5 5 5 3 3 3 4 4 5 5 5 6 6 7 6 6 7 7 7 7 6 6
3 4 4 4 4 4 4 4 4 4 4 4 4 4 4 4 4 4 5 5 6 6 6 4 3 3 3 4 4 5 5 5 6 7 6 6 6 6 7 7 6 6 6
4 4 4 4 4 4 4 5 5 4 4 4 4 4 4 4 4 4 4 5 6 7 6 4 4 4 3 4 5 6 6 6 7 7 7 7 7 7 7 7 6 6 6
5 5 5 5 5 5 5 5 5 5 5 5 5 5 5 5 4 4 4 5 6 6 8 6 5 4 5 5 5 5 6 6 5 6 7 7 7 7 7 7 6 6 7
5 5 5 6 6 6 6 6 6 6 6 6 6 6 6 4 5 5 4 5 5 6 6 8 6 4 5 5 5 5 5 5 5 6 7 8 8 8 8 7 7 7 7
5 5 5 6 6 6 6 6 6 7 7 7 7 7 6 6 6 5 5 5 5 5 6 6 6 4 4 4 4 5 5 4 5 6 7 8 8 8 8 8 8 7 7
6 6 6 6 7 7 7 7 7 7 7 7 7 7 7 7 7 6 6 6 5 6 6 6 6 5 4 4 4 4 4 4 4 4 5 6 7 8 8 8 7 7 7
6 6 6 7 7 6 6 7 7 7 8 8 7 7 7 7 7 7 6 6 6 6 6 6 6 5 4 4 4 3 5 5 5 4 5 5 5 5 5 6 7 6 7
6 7 7 7 7 6 7 9 8 8 8 8 8 8 7 8 8 10 10 9 8 8 7 7 6 7 7 6 5 4 4 4 4 2 4 5 4 5 4 4 5 7 7
7 7 7 8 8 8 8 10 10 9 9 9 9 8 7 7 8 8 9 10 10 11 10 9 9 8 7 6 6 6 5 5 6 4 4 5 4 5 4 5 7 7 7
7 7 8 8 8 8 9 10 10 9 9 9 9 9 9 8 8 7 8 8 9 9 9 9 9 9 8 6 6 6 6 6 6 4 3 4 4 5 5 5 6 6 7
7 8 8 8 9 9 9 10 10 8 8 10 9 9 9 9 9 9 8 9 9 8 8 9 9 9 8 8 6 5 4 4 4 4 3 3 3 4 4 4 4 6 7
8 8 8 9 10 10 9 10 10 7 8 8 8 9 10 11 10 10 10 10 10 9 7 7 7 8 7 7 8 7 5 5 4 3 3 3 3 2 3 3 3 4 5
Wind_Direction
167 155 168 194 258 278 261 267 268 272 269 267 266 269 269 265 265 266 264 254 266 274 271 265 262 260 254 249 250 251 252 252 252 252 248 246 245 244 247 250 251 255 258
175 195 201 213 255 268 269 263 268 268 269 270 273 274 274 274 270 266 267 257 254 273 279 274 269 264 256 251 250 251 253 255 254 255 255 254 254 251 251 252 254 255 258
194 202 212 217 254 271 271 270 278 274 274 276 276 278 276 274 274 268 268 271 265 263 276 281 282 277 268 259 258 257 255 258 257 258 262 264 262 260 257 257 257 259 259
197 222 216 223 238 250 266 271 280 287 277 282 284 283 278 274 272 277 276 277 279 277 265 279 285 288 281 276 274 269 266 267 271 266 266 270 267 263 261 259 259 260 262
281 269 250 250 240 244 253 261 268 279 285 291 289 286 281 271 268 273 278 282 283 287 285 265 264 296 299 295 288 285 278 271 277 276 270 275 274 268 265 265 263 262 263
255 303 304 292 279 253 248 255 259 268 280 293 288 285 276 265 269 280 280 278 283 284 285 287 272 268 280 292 296 295 294 287 277 275 271 274 275 271 270 269 268 267 267
276 299 321 309 310 284 276 268 261 259 270 292 275 277 258 239 254 273 275 280 287 288 284 285 286 285 281 280 294 301 299 293 283 271 267 268 271 272 271 272 271 271 272
23 341 306 276 289 288 291 282 266 255 253 265 276 279 272 238 235 251 263 281 288 285 286 292 295 293 292 291 303 305 304 300 292 281 273 270 269 269 271 270 267 269 271
22 3 335 304 284 281 282 290 282 268 265 258 256 270 267 266 293 236 248 259 276 281 282 286 288 291 293 297 303 313 311 305 299 288 283 278 271 267 270 270 272 273 271
311 315 310 309 305 289 277 273 276 279 263 258 249 251 264 278 268 270 238 250 271 277 280 281 279 285 292 293 301 322 322 312 306 304 300 289 277 270 267 272 278 289 295
303 306 295 292 295 293 289 287 283 272 264 264 262 256 251 256 255 260 270 271 266 270 277 279 277 282 288 290 299 314 313 309 308 307 303 304 300 289 283 284 285 293 301
286 299 289 279 278 283 284 282 277 270 266 266 266 262 262 257 253 255 268 275 276 274 274 272 268 273 281 283 292 315 315 315 313 314 310 307 307 310 307 301 299 299 301
274 283 282 276 273 272 276 276 272 269 266 262 263 263 264 266 272 271 272 275 274 275 270 265 263 265 275 281 288 296 297 307 310 311 310 310 316 318 319 313 308 309 307
269 275 270 269 270 272 270 268 266 265 267 264 263 264 265 265 260 256 263 272 276 268 260 262 262 260 269 277 292 283 288 295 300 300 302 307 309 309 312 314 309 310 312
266 265 263 264 265 264 265 266 260 263 264 262 263 261 261 265 266 261 254 254 263 274 271 262 261 261 267 278 287 281 285 290 290 289 288 293 298 300 300 304 300 302 306
264 265 263 262 261 257 255 256 261 261 260 263 265 259 256 260 261 261 257 254 251 258 265 265 268 280 278 280 282 281 281 283 281 281 281 288 291 295 296 296 291 296 298
258 259 259 258 257 255 253 251 257 261 259 261 260 258 258 260 257 256 256 256 254 253 260 269 272 281 279 280 284 285 286 286 287 285 286 290 289 287 289 289 288 290 294
256 256 257 256 256 254 252 251 254 256 255 255 256 256 258 258 255 257 254 252 255 256 262 270 274 275 276 284 285 285 287 285 284 287 284 287 287 285 283 282 283 284 287
255 252 251 254 257 257 254 252 253 255 255 255 255 254 255 253 254 253 254 255 253 254 256 265 274 276 276 282 288 289 285 282 284 284 278 282 280 278 277 277 276 278 283
254 253 250 253 256 257 256 254 251 253 255 256 256 254 252 250 253 254 254 254 256 256 254 258 265 269 271 281 282 283 285 286 285 283 280 283 279 273 268 267 268 275 281
254 255 254 255 254 254 252 253 255 254 254 256 255 253 251 251 255 255 256 256 253 253 254 255 258 261 260 265 267 274 279 290 285 274 283 279 275 269 265 261 262 273 280
256 254 252 253 253 251 249 250 256 257 254 254 256 256 254 247 246 247 251 253 253 251 252 255 256 258 259 258 260 262 273 280 279 270 288 282 273 270 268 267 274 281 282
256 255 254 254 256 255 249 252 252 256 254 253 254 255 254 250 244 248 246 243 244 246 251 258 261 262 264 257 254 255 257 268 271 286 289 275 269 272 275 274 274 275 275
253 254 255 255 257 256 248 253 255 254 255 253 253 253 254 254 245 245 252 253 251 247 244 248 257 264 266 263 256 259 263 269 274 266 259 265 275 279 285 277 260 262 268
255 255 256 256 258 259 245 247 250 254 254 254 253 252 252 254 245 237 246 253 256 255 246 244 255 262 265 257 252 250 246 255 265 258 230 255 276 288 284 270 261 260 267
257 259 256 254 255 259 251 246 246 249 254 257 255 252 245 247 248 237 243 249 253 255 252 247 243 246 247 244 235 237 240 244 254 253 211 234 260 288 285 266 268 276 276
Height
1523 1523 1523 1523 1524 1523 1523 1523 1523 1522 1522 1521 1521 1521 1520 1520 1519 1519 1519 1518 1518 1518 1518 1518 1518 1518 1518 1518 1518 1518 1518 1518 1518 1518 1518 1518 1518 1518 1518 1518 1517 1517 1517
1522 1522 1522 1521 1521 1521 1521 1521 1521 1520 1520 1519 1519 1518 1518 1518 1517 1516 1516 1515 1515 1515 1515 1515 1515 1515 1515 1515 1515 1515 1515 1515 1515 1515 1515 1515 1515 1514 1514 1514 1513 1513 1513
1520 1520 1519 1519 1519 1519 1519 1519 1519 1518 1517 1517 1516 1516 1515 1515 1514 1514 1513 1513 1512 1512 1512 1512 1512 1512 1511 1511 1511 1511 1511 1511 1511 1511 1510 1510 1510 1510 1510 1510 1509 1509 1509
1518 1518 1518 1517 1517 1517 1517 1516 1516 1516 1515 1515 1514 1513 1513 1512 1512 1511 1511 1510 1510 1509 1509 1508 1508 1508 1508 1508 1508 1508 1507 1507 1507 1507 1506 1506 1506 1506 1506 1506 1505 1505 1505
1516 1516 1516 1515 1515 1515 1515 1514 1513 1513 1513 1512 1511 1511 1510 1510 1509 1509 1508 1508 1507 1506 1506 1505 1505 1505 1505 1505 1504 1504 1503 1503 1503 1502 1501 1501 1501 1501 1501 1501 1501 1501 1501
1514 1514 1513 1513 1513 1513 1512 1512 1511 1511 1510 1510 1509 1508 1508 1507 1507 1506 1506 1505 1504 1504 1503 1503 1503 1502 1502 1501 1501 1500 1500 1499 1499 1498 1497 1497 1497 1496 1496 1496 1496 1496 1496
1512 1511 1511 1511 1511 1510 1510 1510 1509 1508 1508 1507 1507 1506 1506 1505 1504 1504 1503 1503 1502 1501 1501 1500 1500 1499 1499 1498 1497 1497 1496 1495 1495 1494 1494 1493 1493 1492 1492 1492 1492 1492 1492
1509 1509 1509 1509 1509 1508 1508 1507 1506 1506 1505 1505 1505 1504 1504 1505 1502 1501 1501 1500 1500 1499 1498 1498 1497 1496 1495 1495 1493 1493 1492 1491 1491 1490 1489 1489 1488 1488 1488 1487 1487 1487 1487
1507 1507 1507 1506 1506 1506 1505 1504 1504 1503 1503 1503 1503 1503 1503 1502 1501 1499 1498 1498 1497 1496 1496 1495 1494 1493 1492 1491 1490 1489 1489 1488 1487 1486 1485 1485 1484 1484 1484 1483 1483 1482 1482
1505 1505 1504 1504 1504 1503 1503 1502 1501 1501 1500 1500 1500 1500 1500 1499 1499 1497 1496 1495 1494 1494 1493 1491 1490 1490 1489 1487 1487 1486 1485 1484 1484 1483 1482 1481 1480 1480 1480 1479 1479 1478 1477
1503 1502 1502 1502 1501 1500 1500 1499 1499 1498 1497 1497 1496 1496 1496 1496 1496 1495 1493 1493 1492 1491 1489 1488 1487 1486 1485 1484 1483 1482 1481 1481 1480 1479 1478 1477 1476 1476 1475 1475 1475 1474 1473
1500 1500 1500 1499 1498 1498 1497 1496 1496 1495 1494 1494 1493 1493 1493 1493 1492 1492 1491 1489 1489 1488 1486 1485 1484 1483 1482 1481 1479 1479 1478 1477 1476 1475 1474 1473 1473 1472 1471 1471 1470 1470 1469
1497 1497 1497 1496 1495 1495 1494 1493 1493 1492 1491 1491 1490 1489 1489 1489 1489 1488 1488 1486 1485 1483 1482 1481 1480 1479 1478 1477 1476 1475 1474 1473 1472 1471 1470 1469 1468 1468 1467 1467 1466 1465 1465
1495 1494 1494 1493 1492 1492 1491 1490 1490 1489 1488 1487 1487 1486 1486 1485 1485 1484 1484 1484 1481 1480 1479 1478 1476 1475 1474 1473 1472 1471 1470 1469 1468 1467 1466 1465 1464 1464 1463 1462 1462 1461 1461
1492 1491 1490 1490 1489 1488 1488 1487 1486 1485 1484 1484 1483 1483 1482 1481 1481 1480 1480 1480 1480 1477 1475 1474 1473 1471 1470 1469 1468 1467 1466 1465 1464 1463 1462 1461 1460 1460 1459 1458 1458 1457 1457
1488 1488 1487 1486 1486 1485 1484 1483 1482 1482 1481 1480 1479 1479 1478 1478 1477 1476 1476 1475 1475 1474 1472 1470 1469 1468 1466 1465 1465 1463 1462 1461 1460 1459 1458 1457 1456 1455 1455 1454 1453 1453 1452
1485 1484 1484 1483 1482 1481 1480 1479 1478 1477 1477 1476 1476 1475 1474 1474 1473 1472 1471 1471 1470 1469 1467 1465 1465 1463 1462 1461 1460 1459 1458 1457 1456 1455 1454 1453 1452 1451 1450 1450 1449 1449 1448
1481 1481 1480 1479 1478 1477 1476 1475 1474 1474 1473 1472 1472 1471 1470 1469 1469 1468 1467 1466 1465 1464 1463 1461 1460 1459 1458 1457 1456 1455 1454 1453 1451 1450 1449 1449 1448 1447 1446 1446 1445 1444 1443
1477 1477 1476 1475 1474 1473 1472 1471 1470 1470 1469 1468 1467 1466 1466 1465 1464 1463 1463 1462 1461 1460 1459 1457 1456 1455 1454 1453 1452 1451 1450 1448 1447 1446 1445 1444 1444 1443 1442 1441 1440 1439 1439
1473 1472 1471 1471 1470 1468 1467 1466 1466 1465 1464 1463 1463 1462 1461 1460 1459 1459 1458 1457 1456 1455 1454 1453 1452 1451 1450 1448 1448 1447 1445 1444 1443 1442 1441 1440 1439 1439 1438 1437 1436 1435 1434
1469 1468 1467 1466 1465 1464 1463 1462 1461 1460 1459 1458 1458 1457 1456 1455 1454 1454 1453 1453 1452 1451 1450 1449 1448 1447 1446 1445 1444 1443 1441 1440 1439 1438 1437 1436 1435 1434 1433 1432 1431 1430 1429
1464 1463 1462 1461 1460 1459 1458 1457 1457 1455 1454 1453 1453 1452 1451 1450 1449 1449 1448 1447 1447 1446 1445 1445 1443 1442 1442 1441 1440 1439 1438 1436 1435 1435 1433 1432 1432 1430 1429 1428 1427 1426 1425
1458 1457 1457 1456 1455 1454 1453 1452 1451 1450 1449 1448 1447 1447 1445 1445 1444 1443 1442 1442 1441 1441 1440 1440 1439 1438 1437 1436 1436 1434 1433 1433 1431 1430 1429 1427 1427 1426 1425 1424 1423 1422 1420
1453 1452 1451 1450 1449 1448 1448 1447 1446 1445 1444 1443 1442 1441 1440 1440 1439 1438 1437 1436 1436 1435 1435 1434 1434 1433 1432 1432 1431 1430 1429 1428 1427 1426 1425 1423 1422 1421 1420 1419 1418 1417 1416
1448 1447 1446 1445 1443 1443 1442 1442 1441 1439 1438 1437 1437 1436 1435 1435 1434 1433 1432 1431 1430 1429 1429 1429 1428 1427 1427 1426 1426 1425 1424 1423 1422 1421 1420 1419 1417 1416 1414 1414 1413 1412 1411
1442 1441 1439 1439 1438 1437 1436 1436 1435 1433 1432 1432 1431 1430 1430 1429 1428 1427 1427 1426 1425 1424 1424 1423 1422 1422 1421 1421 1421 1420 1419 1419 1417 1416 1415 1415 1413 1412 1410 1408 1408 1407 1406